Location: Glencliff
(36.1226°N, 86.7183°W)
Time: 05:36:04
(UTC+00:00)

Meteor 2-8 Rocket - Pass Details

Date: 25 August 2019
Orbit: 937 x 958 km, 82.5° (Epoch: 21 September)

Event Time Altitude Azimuth Distance (km) Brightness Sun altitude
Exits shadow 02:42:05 58° 92° (E) 1,086 4.4 -25.6°
Drops below altitude 10° 02:47:58 10° 16° (NNE) 2,655 7.0 -26.5°
Sets 02:50:29 0° 12° (NNE) 3,602 7.8 -26.9°
